Content
SEND FEEDBACK

Daily
Averages
Monthly
Summary
United States of America

ORANGE LAKE, NEW YORK


Home > North America > United States > New York
Elevation: 581 feet     Latitude: 41 47N     Longitude: 074 58W

WEATHER
 
SELECT A DAY
Number of Records: 148,440;   Date Range: 11/1/95 - 9/22/14
 
SHARE

PRINT THIS DATA

[ ← Previous Day ]
WEATHER ALMANAC - APRIL 7, 2013
[ Next Day → ]
[ °C ]   °F
Weather ElementAverageHighLow
Temperature48.4 °F54 °F (1:51 pm)39.9 °F (2:51 am)
Dewpoint33.6 °F42.1 °F (7:51 pm)21.9 °F (7:51 am)
Humidity57.3 %69 % (7:51 pm)42 % (7:51 am)
Barometer30.16 in30.30 in (1:51 am)30.00 in (5:51 pm)
Wind Speed7.4 mph13.8 mph (2:51 pm)
Wind Gust26.5 mph (4:51 pm)
Weather ElementAverage
Visibility10 mi
Wind DirectionSSE (147.8 °)

Weather ElementTotal
Precipitation---
Heating Degree Days18.1 (Base 65)
Averaged from 23 records on April 7, 2013
WEATHER CONDITIONS BREAKOUT
WIND DIRECTION BREAKOUT
WEATHER BY HOUR - APRIL 7, 2013
[ °C ]   °F
Local TimeTemperatureDewpointHumidityBarometerVisibilityWind DirectionWind SpeedGust SpeedPrecipitationEventsConditions
1:51 AM41.0 °F28.0 °F60 %30.30 in10.0 miWSW (240°)5.8 mphClear
2:51 AM39.9 °F28.0 °F63 %30.28 in10.0 miWSW (250°)9.2 mph18.4 mphClear
3:51 AM39.9 °F28.0 °F63 %30.28 in10.0 miWSW (250°)6.9 mphClear
4:51 AM41.0 °F28.9 °F62 %30.28 in10.0 miNorthClear
5:51 AM42.1 °F27.0 °F55 %30.28 in10.0 miVariable3.5 mphClear
6:51 AM43.0 °F23.0 °F45 %30.28 in10.0 miVariable3.5 mphPartly Cloudy
7:51 AM44.1 °F21.9 °F42 %30.28 in10.0 miWSW (250°)4.6 mphPartly Cloudy
8:51 AM45.0 °F24.1 °F44 %30.27 in10.0 miVariable6.9 mph20.7 mphMostly Cloudy
9:51 AM46.9 °F26.1 °F44 %30.26 in10.0 miVariable4.6 mph17.3 mphOvercast
10:51 AM48.9 °F30.0 °F48 %30.24 in10.0 miSouth (180°)8.1 mphClear
11:51 AM51.1 °F30.9 °F46 %30.22 in10.0 miSouth (180°)9.2 mph17.3 mphClear
12:51 PM53.1 °F34.0 °F48 %30.16 in10.0 miSouth (180°)9.2 mph18.4 mphClear
1:51 PM54.0 °F36.0 °F51 %30.14 in10.0 miVariable6.9 mph20.7 mphClear
2:51 PM52.0 °F37.0 °F57 %30.10 in10.0 miSouth (190°)13.8 mph24.2 mphClear
3:51 PM51.1 °F37.9 °F61 %30.06 in10.0 miSouth (190°)9.2 mph24.2 mphClear
4:51 PM51.1 °F39.9 °F66 %30.04 in10.0 miSouth (180°)10.4 mph26.5 mphClear
5:51 PM51.1 °F41.0 °F68 %30.00 in10.0 miSouth (190°)13.8 mph21.9 mphClear
6:51 PM51.1 °F41.0 °F68 %30.01 in10.0 miSouth (170°)8.1 mph20.7 mphOvercast
7:51 PM52.0 °F42.1 °F69 %30.03 in10.0 miSSE (160°)6.9 mphPartly Cloudy
8:51 PM53.1 °F42.1 °F66 %30.03 in10.0 miSouth (180°)8.1 mphPartly Cloudy
9:51 PM54.0 °F42.1 °F64 %30.03 in10.0 miSouth (190°)4.6 mphClear
10:51 PM54.0 °F42.1 °F64 %30.02 in10.0 miSouth (190°)4.6 mphClear
11:51 PM54.0 °F42.1 °F64 %30.00 in10.0 miSW (230°)4.6 mphClear
Hourly data recorded from KNYC, located miles away from Orange Lake, New York







STORIES FROM OUR PARTNERS